Погода в Репном

Россия / Белгородская область     50°31′53″N   36°30′01″E
темп.,
°C
ветер,
м/с
пор.,
м/с
влажн.,
%
обл.,
%
осадки,
мм/ч
давл.,
гПа
погр.,
м
27 сентября, пн
пн2700:00+7сз6129011 0.0 1016428
03:00+6сз6129421 0.0 1017437
06:00+7ссз5109357 0.0 1017433
09:00+9ссз7108095 0.0 1018710
12:00+12с6768100 0.0 10191062
15:00+13ссз5758100 0.1 10191522
18:00+11с587379 0.2 1020382
21:00+8с388746 0.2 1021194
28 сентября, вт
вт2800:00+6с36927 0.0 1021102
03:00+8ссз3685100 0.0 1021193
06:00+8с4890100 0.0 1022283
09:00+10ссв468098 0.0 1022443
12:00+11св566994 0.4 1024977
15:00+12св566499 0.6 10241232
18:00+9св587095 0.1 1026709
21:00+8св5878100 0.1 1028696
29 сентября, ср
ср2900:00+7св5883100 0.0 1030831
03:00+7св5878100 0.0 1030613
06:00+6св5872100 0.0 1031540
09:00+8всв686213 0.0 1032699
12:00+11всв56435 0.0 10321287
15:00+13св563619 0.0 10311545
18:00+9св47464 0.0 1032143
21:00+6св38585 0.0 1033153
30 сентября, чт
чт3000:00+5св36655 0.0 103498
03:00+4св336843 0.0 103450
06:00+3св337182 0.0 103543
09:00+7всв355443 0.0 1035339
12:00+11в344012 0.0 10351198
15:00+13всв33355 0.0 10341444
18:00+9всв22460 0.0 103417
21:00+7в22550 0.0 103515
1 октября, пт
пт100:00+6в22590 0.0 103612
03:00+5в22635 0.0 103611
06:00+4в226620 0.0 103611
09:00+8в235026 0.0 1037247
12:00+13в33389 0.0 10361209
15:00+14в22353 0.0 10351472
18:00+10в22460 0.0 103512
21:00+8в22530 0.0 103511